Yatton Keynell, United Kingdom

8:13 PM GMT on March 19, 2019 (GMT +0000)
Yatton Keynell

Weather History for 03740 - July, 1999

Change the Weather History Date:

Saturday, July 24, 1999

  Actual Average Record
Temperature  
Mean Temperature 66 °F -  
Max Temperature 78 °F 68 °F - ()
Min Temperature 55 °F 53 °F - ()
Cooling Degree Days 2    
Growing Degree Days 16 (Base 50)    
Moisture  
Dew Point 54 °F    
Average Humidity 65    
Maximum Humidity 94    
Minimum Humidity 36    
Precipitation  
Precipitation 0.00 in 0.08 in - ()
Sea Level Pressure  
Sea Level Pressure 30.21 in    
Wind  
Wind Speed 4 mph ()    
Max Wind Speed 10 mph    
Max Gust Speed -    
Visibility 6.2 miles    
Events      
T = Trace of Precipitation, MM = Missing Value Source: Averaged Metar Reports

Daily Weather History Graph

Daily Weather History Graph

Search for Another Location

Airport or City:

Astronomy

Jul. 24, 1999 Rise Set
Actual Time 5:19 AM BST 9:08 PM BST
Civil Twilight 4:36 AM BST 9:51 PM BST
Nautical Twilight 3:37 AM BST 10:49 PM BST
Astronomical Twilight 1:53 AM BST 12:28 AM BST
Moon 5:54 PM BST (7/24) 2:09 AM BST (7/24)
Length of Visible Light 17h 14m
Length of Day
15h 49m
Waxing Gibbous, 85% of the Moon is Illuminated
Jul 24
Waxing Gibbous
Jul 28
Full
Aug 4
Last Quarter
Aug 11
New
Aug 19
First Quarter

Hourly Weather History & Observations

Time (BST) Temp. Dew Point Humidity Pressure Visibility Wind Dir Wind Speed Gust Speed Precip Events Conditions
12:50 AM 59.0 °F 53.6 °F 82% 30.27 in - SW 4.6 mph - N/A   Clear
1:50 AM 59.0 °F 53.6 °F 82% 30.27 in - SW 3.5 mph - N/A   Clear
2:50 AM 57.2 °F 53.6 °F 88% 30.27 in - Calm Calm - N/A   Clear
3:50 AM 55.4 °F 53.6 °F 94% 30.24 in - SW 3.5 mph - N/A   Clear
4:50 AM 55.4 °F 53.6 °F 94% 30.24 in - SSW 1.2 mph - N/A   Clear
5:50 AM 55.4 °F 53.6 °F 94% 30.24 in - Calm Calm - N/A   Clear
6:50 AM 55.4 °F 53.6 °F 94% 30.24 in - Calm Calm - N/A   Clear
7:50 AM 59.0 °F 55.4 °F 88% 30.24 in 6.2 mi Calm Calm - N/A   Partly Cloudy
8:50 AM 62.6 °F 57.2 °F 82% 30.27 in - SW 3.5 mph - N/A   Clear
9:50 AM 68.0 °F 59.0 °F 73% 30.24 in - SW 4.6 mph - N/A   Clear
10:50 AM 71.6 °F 55.4 °F 57% 30.24 in - SSW 4.6 mph - N/A   Clear
11:50 AM 73.4 °F 53.6 °F 50% 30.24 in 6.2 mi SW 8.1 mph - N/A   Partly Cloudy
12:50 PM 77.0 °F 53.6 °F 44% 30.21 in 6.2 mi SW 9.2 mph - N/A   Partly Cloudy
1:50 PM 78.8 °F 50.0 °F 36% 30.21 in 6.2 mi SSW 8.1 mph - N/A   Partly Cloudy
2:50 PM 78.8 °F 51.8 °F 39% 30.21 in 6.2 mi SW 8.1 mph - N/A   Partly Cloudy
3:50 PM 78.8 °F 51.8 °F 39% 30.18 in - SW 10.4 mph - N/A   Clear
4:50 PM 78.8 °F 53.6 °F 42% 30.18 in - SW 8.1 mph - N/A   Clear
5:50 PM 78.8 °F 55.4 °F 44% 30.15 in - SW 9.2 mph - N/A   Clear
6:50 PM 77.0 °F 53.6 °F 44% 30.15 in - SW 9.2 mph - N/A   Clear
7:50 PM 75.2 °F 53.6 °F 47% 30.15 in - WNW 6.9 mph - N/A   Clear
8:50 PM 71.6 °F 53.6 °F 53% 30.15 in - WNW 3.5 mph - N/A   Clear
9:50 PM 69.8 °F 51.8 °F 53% 30.15 in - West 5.8 mph - N/A   Clear
10:50 PM 68.0 °F 53.6 °F 60% 30.18 in - South 3.5 mph - N/A   Clear
11:50 PM 64.4 °F 55.4 °F 73% 30.18 in - South 5.8 mph - N/A   Clear